DW4381 Weather Reports


Display with metric or nautical units.
time (UTC)temp
F
wind
direction
speed
MPH
gust
MPH
rain 1hr
in
rain 24hr
in
rain mn
in
humidity
%
barometer
mb
20220628093639 52 10 0.0 9.0 0.00 0.00 0.00 46 1031.0
20220628093138 52 10 6.0 7.0 0.00 0.00 0.00 47 1031.0
20220628092638 52 10 0.0 0.0 0.00 0.00 0.00 47 1031.0
20220628092139 52 10 0.0 0.0 0.00 0.00 0.00 48 1031.3
20220628091638 53 10 0.0 0.0 0.00 0.00 0.00 48 1031.4
20220628091138 53 10 0.0 0.0 0.00 0.00 0.00 47 1031.5
20220628090638 53 10 0.0 7.0 0.00 0.00 0.00 47 1031.4
20220628090138 53 10 1.0 5.0 0.00 0.00 0.00 47 1031.5
20220628085638 53 10 0.0 0.0 0.00 0.00 0.00 47 1031.5
20220628085138 53 10 0.0 0.0 0.00 0.00 0.00 47 1031.7
20220628084638 53 10 0.0 0.0 0.00 0.00 0.00 47 1031.8
20220628084139 53 10 0.0 0.0 0.00 0.00 0.00 48 1031.9
20220628083638 53 10 0.0 0.0 0.00 0.00 0.00 48 1032.0
20220628083138 54 10 0.0 1.0 0.00 0.00 0.00 48 1032.1
20220628082638 53 10 0.0 9.0 0.00 0.00 0.00 48 1032.2
20220628082138 53 10 4.0 9.0 0.00 0.00 0.00 49 1032.2
20220628081638 53 10 2.0 11.0 0.00 0.00 0.00 49 1032.4
20220628081139 53 10 3.0 11.0 0.00 0.00 0.00 49 1032.5
20220628080638 53 10 4.0 8.0 0.00 0.00 0.00 50 1032.6
20220628080138 53 10 0.0 14.0 0.00 0.00 0.00 50 1032.6
20220628075638 52 10 10.0 14.0 0.00 0.00 0.00 51 1032.8
20220628075138 52 10 2.0 13.0 0.00 0.00 0.00 51 1032.9
20220628074639 52 10 7.0 13.0 0.00 0.00 0.00 52 1033.0
20220628074138 51 10 3.0 9.0 0.00 0.00 0.00 53 1033.1
20220628073638 51 10 5.0 8.0 0.00 0.00 0.00 54 1033.2
20220628073139 52 10 0.0 0.0 0.00 0.00 0.00 54 1033.3
20220628072638 52 10 0.0 7.0 0.00 0.00 0.00 54 1033.4
20220628072138 52 10 0.0 6.0 0.00 0.00 0.00 54 1033.6
20220628071638 52 10 4.0 8.0 0.00 0.00 0.00 54 1033.6
20220628071138 52 10 0.0 0.0 0.00 0.00 0.00 53 1033.7
20220628070638 52 10 0.0 0.0 0.00 0.00 0.00 54 1033.9
20220628070139 52 10 0.0 0.0 0.00 0.00 0.00 54 1034.0
20220628065638 52 10 0.0 0.0 0.00 0.00 0.00 54 1034.1
20220628065138 52 10 0.0 5.0 0.00 0.00 0.00 54 1034.2
20220628064638 52 10 0.0 0.0 0.00 0.00 0.00 54 1034.4
20220628064138 52 10 0.0 8.0 0.00 0.00 0.00 54 1034.4
20220628063638 52 10 0.0 0.0 0.00 0.00 0.00 54 1034.5
20220628063138 52 10 0.0 8.0 0.00 0.00 0.00 54 1034.5
20220628062638 52 10 6.0 6.0 0.00 0.00 0.00 54 1034.5
20220628062139 52 10 0.0 0.0 0.00 0.00 0.00 54 1034.5
20220628061638 52 10 0.0 0.0 0.00 0.00 0.00 54 1034.6
20220628061138 52 10 0.0 8.0 0.00 0.00 0.00 54 1034.6
20220628060638 52 10 0.0 0.0 0.00 0.00 0.00 54 1034.8
20220628060138 52 10 0.0 9.0 0.00 0.00 0.00 55 1034.8
20220628055639 52 10 0.0 8.0 0.00 0.00 0.00 55 1034.8
20220628055138 52 10 7.0 10.0 0.00 0.00 0.00 55 1035.0
20220628054638 52 10 5.0 11.0 0.00 0.00 0.00 55 1035.0
20220628054139 52 10 0.0 11.0 0.00 0.00 0.00 55 1035.0
20220628053638 51 10 5.0 9.0 0.00 0.00 0.00 56 1035.1
20220628053138 51 10 1.0 9.0 0.00 0.00 0.00 56 1035.2
20220628052638 51 10 4.0 11.0 0.00 0.00 0.00 56 1035.3
20220628052138 51 10 0.0 9.0 0.00 0.00 0.00 57 1035.4
20220628051639 51 10 6.0 6.0 0.00 0.00 0.00 56 1035.5
20220628051139 51 10 0.0 0.0 0.00 0.00 0.00 57 1035.6
20220628050638 51 10 0.0 0.0 0.00 0.00 0.00 57 1035.8
20220628050138 51 10 0.0 0.0 0.00 0.00 0.00 57 1035.9
20220628045638 51 10 0.0 0.0 0.00 0.00 0.00 57 1036.1
20220628045138 52 10 0.0 0.0 0.00 0.00 0.00 57 1036.1
20220628044638 52 10 0.0 0.0 0.00 0.00 0.00 57 1036.2
20220628044138 52 10 0.0 0.0 0.00 0.00 0.00 55 1036.4
20220628043639 52 10 0.0 0.0 0.00 0.00 0.00 54 1036.5
20220628043139 53 10 0.0 0.0 0.00 0.00 0.00 54 1036.6
20220628042638 53 10 0.0 0.0 0.00 0.00 0.00 53 1036.5
20220628042139 53 10 0.0 0.0 0.00 0.00 0.00 54 1036.5
20220628041639 53 10 0.0 5.0 0.00 0.00 0.00 53 1036.4
20220628041139 53 10 0.0 0.0 0.00 0.00 0.00 53 1036.4
20220628040638 53 10 0.0 0.0 0.00 0.00 0.00 53 1036.3
20220628040138 53 10 0.0 0.0 0.00 0.00 0.00 53 1036.3
20220628035638 54 10 0.0 10.0 0.00 0.00 0.00 53 1036.3
20220628035138 54 10 0.0 3.0 0.00 0.00 0.00 53 1036.3
20220628034638 54 10 0.0 0.0 0.00 0.00 0.00 52 1036.3
20220628034139 54 10 0.0 5.0 0.00 0.00 0.00 52 1036.3
20220628033638 54 10 0.0 8.0 0.00 0.00 0.00 52 1036.2
20220628033138 54 10 0.0 9.0 0.00 0.00 0.00 52 1036.1
20220628032638 54 10 0.0 9.0 0.00 0.00 0.00 52 1036.0
20220628032138 54 10 0.0 10.0 0.00 0.00 0.00 52 1036.0
20220628031638 54 10 0.0 11.0 0.00 0.00 0.00 52 1035.8
20220628031138 54 10 0.0 10.0 0.00 0.00 0.00 52 1035.8
20220628030638 54 10 3.0 10.0 0.00 0.00 0.00 52 1035.9
20220628030139 54 10 0.0 9.0 0.00 0.00 0.00 53 1036.0
20220628025638 54 10 2.0 6.0 0.00 0.00 0.00 54 1035.9
20220628025138 54 10 6.0 7.0 0.00 0.00 0.00 54 1035.9
20220628024638 54 10 0.0 8.0 0.00 0.00 0.00 54 1035.9
20220628024138 54 10 5.0 6.0 0.00 0.00 0.00 53 1036.0
20220628023638 54 10 0.0 8.0 0.00 0.00 0.00 53 1036.0
20220628023139 54 10 0.0 6.0 0.00 0.00 0.00 53 1036.1
20220628022639 55 10 3.0 7.0 0.00 0.00 0.00 53 1036.1
20220628022138 55 10 0.0 7.0 0.00 0.00 0.00 52 1036.1
20220628021638 55 10 0.0 0.0 0.00 0.00 0.00 51 1036.2
20220628021138 56 10 0.0 7.0 0.00 0.00 0.00 50 1036.1
20220628020638 56 10 2.0 4.0 0.00 0.00 0.00 50 1036.1
20220628020139 56 10 0.0 0.0 0.00 0.00 0.00 49 1036.2
20220628015638 57 10 0.0 0.0 0.00 0.00 0.00 50 1036.4
20220628015138 57 10 0.0 0.0 0.00 0.00 0.00 51 1036.2
20220628014638 57 10 0.0 0.0 0.00 0.00 0.00 52 1036.2
20220628014138 56 10 0.0 0.0 0.00 0.00 0.00 52 1036.2
20220628013638 56 10 0.0 0.0 0.00 0.00 0.00 53 1036.4
20220628013138 56 10 0.0 0.0 0.00 0.00 0.00 53 1036.3
20220628012639 55 10 0.0 0.0 0.00 0.00 0.00 53 1036.3
20220628012139 55 10 0.0 0.0 0.00 0.00 0.00 56 1036.1
20220628011638 55 10 0.0 0.0 0.00 0.00 0.00 54 1036.3
20220628011138 54 10 0.0 8.0 0.00 0.00 0.00 54 1036.5
20220628010638 54 313 0.0 13.0 0.00 0.00 0.00 54 1036.5
20220628010138 54 10 9.0 15.0 0.00 0.00 0.00 53 1036.5
20220628005638 55 10 11.0 18.0 0.00 0.00 0.00 52 1036.5
20220628005138 55 10 2.0 19.0 0.00 0.00 0.00 51 1036.5
20220628004638 55 10 10.0 19.0 0.00 0.00 0.00 52 1036.5
20220628004138 56 10 13.0 23.0 0.00 0.00 0.00 51 1036.5
20220628003639 56 10 8.0 21.0 0.00 0.00 0.00 50 1036.4
20220628003138 57 10 15.0 23.0 0.00 0.00 0.00 48 1036.3
20220628002638 59 10 16.0 30.0 0.00 0.00 0.00 46 1036.2
20220628002138 60 10 11.0 21.0 0.00 0.01 0.00 43 1036.1
20220628001638 60 10 9.0 18.0 0.00 0.01 0.00 43 1036.1
20220628001138 61 10 8.0 18.0 0.00 0.01 0.00 41 1035.9
20220628000638 62 10 12.0 17.0 0.00 0.01 0.00 44 1035.9
20220628000139 62 10 8.0 15.0 0.00 0.01 0.00 44 1035.7
20220627235638 61 10 5.0 12.0 0.00 0.02 0.00 43 1035.6
20220627235138 61 10 5.0 15.0 0.00 0.02 0.00 42 1035.5
20220627234639 61 10 4.0 12.0 0.00 0.02 0.00 42 1035.5
20220627234138 62 10 3.0 11.0 0.00 0.02 0.00 43 1035.5
20220627233638 62 10 0.0 16.0 0.00 0.02 0.00 40 1035.3
20220627233138 64 10 8.0 12.0 0.00 0.02 0.00 38 1035.3
20220627232638 65 358 5.0 10.0 0.00 0.02 0.00 37 1035.1
20220627232138 66 10 0.0 11.0 0.00 0.02 0.00 34 1034.8
20220627231638 66 10 4.0 10.0 0.00 0.02 0.00 34 1034.8
20220627231138 68 10 0.0 11.0 0.00 0.02 0.00 34 1034.6
20220627230638 68 10 0.0 5.0 0.00 0.02 0.00 32 1034.6
20220627230138 68 10 0.0 7.0 0.00 0.02 0.00 34 1034.6
20220627225638 68 10 0.0 2.0 0.00 0.02 0.00 34 1034.4
20220627225139 67 10 0.0 6.0 0.00 0.02 0.00 34 1034.4
20220627224638 67 10 0.0 6.0 0.00 0.02 0.00 36 1034.4
20220627224138 66 10 0.0 6.0 0.00 0.02 0.00 36 1034.4
20220627223638 66 10 0.0 4.0 0.00 0.02 0.00 36 1034.4
20220627223138 66 10 0.0 3.0 0.00 0.02 0.00 35 1034.4
20220627222638 67 10 0.0 0.0 0.00 0.02 0.00 35 1034.3
20220627222138 67 10 0.0 0.0 0.00 0.02 0.00 36 1034.2
20220627221638 67 10 0.0 0.0 0.00 0.02 0.00 36 1034.2
20220627221138 67 10 0.0 0.0 0.00 0.03 0.00 35 1034.3
20220627220638 67 10 0.0 2.0 0.00 0.03 0.00 34 1034.3
20220627220138 68 10 0.0 7.0 0.00 0.03 0.00 33 1034.4
20220627215638 68 10 0.0 7.0 0.00 0.03 0.00 36 1034.4
20220627215138 67 10 5.0 8.0 0.00 0.03 0.00 35 1034.4
20220627214638 66 10 0.0 10.0 0.00 0.03 0.00 35 1034.3
20220627214138 66 10 0.0 6.0 0.00 0.03 0.00 37 1034.3
20220627213638 65 10 3.0 3.0 0.00 0.03 0.00 40 1034.2
20220627213138 64 23 0.0 7.0 0.00 0.03 0.00 39 1034.3
20220627212638 65 10 0.0 7.0 0.00 0.03 0.00 37 1034.3
20220627212138 66 10 0.0 9.0 0.00 0.03 0.00 36 1034.0
20220627211638 67 10 0.0 7.0 0.00 0.04 0.00 34 1034.0
20220627211138 68 10 0.0 0.0 0.00 0.04 0.00 35 1033.9
20220627210638 68 10 0.0 8.0 0.00 0.05 0.00 34 1033.9
20220627210138 69 10 0.0 8.0 0.00 0.07 0.00 33 1033.9
20220627205638 68 10 0.0 0.0 0.00 0.07 0.00 34 1033.8
20220627205138 68 10 0.0 5.0 0.00 0.08 0.00 32 1033.8
20220627204638 67 10 4.0 5.0 0.00 0.08 0.00 35 1033.8
20220627204138 66 116 0.0 7.0 0.00 0.08 0.00 34 1033.7
20220627203638 67 10 0.0 5.0 0.00 0.08 0.00 32 1033.7
20220627203138 68 10 3.0 8.0 0.00 0.08 0.00 33 1033.6
20220627202639 68 10 0.0 7.0 0.00 0.08 0.00 34 1033.5
20220627202138 68 10 0.0 11.0 0.00 0.08 0.00 32 1033.5
20220627201638 68 158 0.0 8.0 0.00 0.08 0.00 32 1033.4
20220627201138 68 10 0.0 6.0 0.00 0.08 0.00 33 1033.5
20220627200638 68 10 0.0 0.0 0.00 0.08 0.00 33 1033.5
20220627200138 67 10 0.0 8.0 0.00 0.08 0.00 32 1033.6
20220627195638 68 10 0.0 11.0 0.00 0.08 0.00 32 1033.5
20220627195138 68 10 0.0 0.0 0.00 0.08 0.00 36 1033.3
20220627194639 68 10 0.0 9.0 0.00 0.09 0.00 33 1033.5
20220627194138 68 10 0.0 0.0 0.00 0.09 0.00 34 1033.3
20220627193638 67 10 0.0 6.0 0.00 0.09 0.00 36 1033.2
20220627193138 67 10 0.0 6.0 0.00 0.09 0.00 34 1033.2
20220627192638 67 10 0.0 8.0 0.00 0.09 0.00 34 1033.2
20220627192138 66 10 0.0 7.0 0.00 0.09 0.00 34 1033.2
20220627191638 66 10 0.0 8.0 0.00 0.09 0.00 34 1033.3
20220627191138 67 10 5.0 8.0 0.00 0.09 0.00 36 1033.1
20220627190639 67 10 0.0 6.0 0.00 0.09 0.00 37 1033.1
20220627190138 66 358 0.0 8.0 0.00 0.09 0.00 35 1033.2
20220627185638 66 10 9.0 9.0 0.00 0.09 0.00 36 1033.1
20220627185138 66 359 3.0 10.0 0.00 0.09 0.00 38 1033.1
20220627184638 64 10 0.0 8.0 0.00 0.09 0.00 38 1033.1
20220627184138 63 10 0.0 5.0 0.00 0.09 0.00 38 1033.0
20220627183639 63 10 0.0 10.0 0.00 0.09 0.00 39 1033.1
20220627183138 64 10 6.0 6.0 0.00 0.09 0.00 38 1032.9
20220627182638 64 10 0.0 1.0 0.00 0.09 0.00 37 1032.9
20220627182138 65 10 0.0 7.0 0.00 0.09 0.00 34 1032.9
20220627181638 65 10 0.0 10.0 0.00 0.09 0.00 35 1032.9
20220627181138 65 10 6.0 8.0 0.00 0.09 0.00 37 1032.8
20220627180638 63 10 0.0 0.0 0.00 0.09 0.00 39 1032.8
20220627180138 63 10 0.0 3.0 0.00 0.09 0.00 37 1032.9
20220627175638 63 10 0.0 7.0 0.00 0.09 0.00 36 1032.8
20220627175138 64 10 0.0 0.0 0.00 0.09 0.00 38 1032.8
20220627174638 64 10 0.0 6.0 0.00 0.09 0.00 37 1032.8
20220627174138 64 10 0.0 0.0 0.00 0.09 0.00 37 1032.7
20220627173639 64 10 0.0 6.0 0.00 0.09 0.00 41 1032.7
20220627173138 65 10 0.0 10.0 0.00 0.09 0.00 38 1032.6
20220627172638 66 10 0.0 8.0 0.00 0.09 0.00 37 1032.6
20220627172138 66 10 0.0 7.0 0.00 0.09 0.00 36 1032.6
20220627171638 66 10 4.0 8.0 0.00 0.09 0.00 35 1032.5
20220627171139 66 10 0.0 7.0 0.00 0.09 0.00 36 1032.5
20220627170638 67 10 0.0 6.0 0.00 0.09 0.00 39 1032.5
20220627170138 66 10 0.0 5.0 0.00 0.09 0.00 37 1032.3
20220627165638 65 10 0.0 4.0 0.00 0.09 0.00 38 1032.3
20220627165138 65 10 0.0 4.0 0.00 0.09 0.00 39 1032.3
20220627164638 65 10 5.0 16.0 0.00 0.09 0.00 39 1032.2
20220627164138 66 10 6.0 14.0 0.00 0.09 0.00 39 1032.1
20220627163638 65 10 0.0 8.0 0.00 0.09 0.00 41 1032.1
20220627163138 65 10 0.0 10.0 0.00 0.09 0.00 41 1032.1
20220627162638 65 10 10.0 8.0 0.00 0.09 0.00 41 1032.1
20220627162138 65 10 0.0 10.0 0.00 0.09 0.00 41 1032.1
20220627161638 65 10 5.0 9.0 0.00 0.09 0.00 44 1032.0
20220627161138 65 10 0.0 6.0 0.00 0.09 0.00 42 1032.1
20220627160638 64 331 0.0 11.0 0.00 0.09 0.00 41 1032.3
20220627160138 64 10 0.0 5.0 0.00 0.09 0.00 41 1032.3
20220627155638 64 10 4.0 8.0 0.00 0.09 0.00 44 1032.3
20220627155138 63 40 0.0 8.0 0.00 0.09 0.00 43 1032.3
20220627154638 64 10 0.0 11.0 0.00 0.09 0.00 45 1032.3
20220627154139 63 10 4.0 11.0 0.00 0.09 0.00 48 1032.2
20220627153638 63 353 0.0 0.0 0.00 0.09 0.00 46 1032.3
20220627153138 63 10 0.0 9.0 0.00 0.09 0.00 46 1032.3
20220627152638 62 10 0.0 2.0 0.00 0.09 0.00 46 1032.4
20220627152138 62 10 0.0 9.0 0.00 0.09 0.00 48 1032.4
20220627151638 62 346 0.0 8.0 0.00 0.09 0.00 45 1032.4
20220627151138 62 5 0.0 6.0 0.00 0.09 0.00 47 1032.4
20220627150638 61 330 0.0 0.0 0.00 0.09 0.00 49 1032.5
20220627150138 61 10 0.0 0.0 0.00 0.09 0.00 50 1032.4
20220627145638 61 10 0.0 0.0 0.00 0.09 0.00 53 1032.4
20220627145138 60 10 0.0 0.0 0.00 0.09 0.00 50 1032.4
20220627144638 60 10 0.0 0.0 0.00 0.09 0.00 52 1032.4
20220627144138 60 10 0.0 5.0 0.00 0.09 0.00 51 1032.4
20220627143638 59 328 0.0 8.0 0.00 0.09 0.00 51 1032.4
20220627143138 59 10 0.0 0.0 0.00 0.09 0.00 53 1032.5
20220627142638 59 10 0.0 0.0 0.00 0.09 0.00 55 1032.4
20220627142138 59 10 0.0 4.0 0.00 0.09 0.00 58 1032.4
20220627141638 58 331 0.0 0.0 0.00 0.09 0.00 56 1032.4
20220627141138 58 10 0.0 4.0 0.00 0.09 0.00 57 1032.3
20220627140639 58 327 0.0 0.0 0.00 0.09 0.00 57 1032.3
20220627140138 58 327 0.0 0.0 0.00 0.09 0.00 59 1032.4
20220627135638 57 10 0.0 0.0 0.00 0.09 0.00 58 1032.3
20220627135138 57 327 0.0 0.0 0.00 0.09 0.00 60 1032.3
20220627134638 57 10 0.0 0.0 0.00 0.09 0.00 60 1032.2
20220627134139 56 325 0.0 0.0 0.00 0.09 0.00 60 1032.1
20220627133638 56 10 0.0 5.0 0.00 0.09 0.00 61 1032.1
20220627133138 56 10 0.0 5.0 0.00 0.09 0.00 61 1032.0
20220627132638 55 10 0.0 5.0 0.00 0.09 0.00 61 1032.0
20220627132139 55 10 5.0 5.0 0.00 0.09 0.00 62 1032.0
20220627131638 55 10 0.0 5.0 0.00 0.09 0.00 62 1031.9
20220627131138 54 10 0.0 0.0 0.00 0.09 0.00 61 1031.9
20220627130638 54 10 0.0 0.0 0.00 0.09 0.00 60 1031.9
20220627130138 54 10 0.0 0.0 0.00 0.09 0.00 61 1031.8
20220627125638 53 10 0.0 0.0 0.00 0.09 0.00 60 1031.8
20220627125138 53 10 0.0 5.0 0.00 0.09 0.00 61 1031.7
20220627124638 52 10 0.0 0.0 0.00 0.09 0.00 63 1031.7
20220627124138 51 10 0.0 0.0 0.00 0.09 0.00 64 1031.7
20220627123638 51 10 0.0 0.0 0.00 0.09 0.00 63 1031.6
20220627123138 50 10 0.0 0.0 0.00 0.09 0.00 63 1031.7
20220627122638 50 10 0.0 0.0 0.00 0.09 0.00 63 1031.6
20220627122138 50 10 0.0 0.0 0.00 0.09 0.00 64 1031.7
20220627121638 50 10 0.0 0.0 0.00 0.09 0.00 64 1031.7
20220627121138 49 10 0.0 0.0 0.00 0.09 0.00 64 1031.7
20220627120638 49 10 0.0 0.0 0.00 0.09 0.00 64 1031.7
20220627120138 49 10 0.0 0.0 0.00 0.09 0.00 64 1031.8
20220627115638 49 10 0.0 0.0 0.00 0.09 0.00 64 1031.8
20220627115138 49 10 0.0 5.0 0.00 0.09 0.00 64 1031.8
20220627114638 49 10 4.0 3.0 0.00 0.09 0.00 65 1031.9
20220627114138 49 10 0.0 0.0 0.00 0.09 0.00 65 1031.8
20220627113638 48 10 0.0 0.0 0.00 0.09 0.00 65 1031.8
20220627113138 48 10 0.0 0.0 0.00 0.09 0.00 66 1031.8
20220627112638 48 10 0.0 0.0 0.00 0.09 0.00 66 1031.8
20220627112138 48 10 0.0 0.0 0.00 0.09 0.00 67 1031.8
20220627111638 48 10 0.0 0.0 0.00 0.09 0.00 67 1031.8
20220627111138 48 10 0.0 0.0 0.00 0.09 0.00 68 1031.7
20220627110638 47 10 0.0 0.0 0.00 0.09 0.00 68 1031.8
20220627110138 47 10 0.0 0.0 0.00 0.09 0.00 69 1031.7
20220627105638 47 10 0.0 0.0 0.00 0.09 0.00 70 1031.6
20220627105138 47 10 0.0 0.0 0.00 0.09 0.00 71 1031.7
20220627104638 46 10 0.0 0.0 0.00 0.09 0.00 72 1031.7
20220627104139 46 10 0.0 0.0 0.00 0.09 0.00 73 1031.6
20220627103638 46 10 0.0 0.0 0.00 0.09 0.00 75 1031.6
20220627103138 46 10 0.0 0.0 0.00 0.09 0.00 76 1031.5
20220627102638 46 10 0.0 4.0 0.00 0.09 0.00 77 1031.5
20220627102138 46 10 0.0 0.0 0.00 0.09 0.00 79 1031.5
20220627101638 46 10 0.0 0.0 0.00 0.09 0.00 80 1031.5
20220627101138 46 10 0.0 0.0 0.00 0.09 0.00 81 1031.5
20220627100638 46 10 0.0 0.0 0.00 0.09 0.00 81 1031.6
20220627100138 46 10 0.0 0.0 0.00 0.09 0.00 81 1031.4
20220627095638 46 10 0.0 0.0 0.00 0.09 0.00 80 1031.5
20220627095138 46 10 0.0 0.0 0.00 0.09 0.00 80 1031.5
20220627094638 46 10 0.0 0.0 0.00 0.09 0.00 80 1031.5
20220627094138 46 10 0.0 0.0 0.00 0.09 0.00 80 1031.6